Regional Weather Roundup
Issued by NWS

Home | Current Version | Previous Version | Graphics & Text | Print | Product List | Glossary On
Versions: 1 2 3 4 5 6 7 8 9 10 11 12 13 14 15 16 17 18 19 20 21 22 23 24 25 26 27 28 29 30 31 32 33 34 35 36 37 38 39 40 41 42 43 44 45 46 47 48 49 50
000
ASUS43 KFSD 030602
RWRSD

WEATHER ROUNDUP FOR SOUTH DAKOTA
NATIONAL WEATHER SERVICE SIOUX FALLS SD
1200 AM CST TUE MAR 03 2015

NOTE: "FAIR" INDICATES FEW OR NO CLOUDS BELOW 12,000 FEET WITH NO
SIGNIFICANT WEATHER AND/OR OBSTRUCTIONS TO VISIBILITY.


SDZ001>005-009-010-012>017-030700-
NORTHWEST AND NORTH CENTRAL SOUTH DAKOTA

CITY           SKY/WX    TMP DP  RH WIND       PRES   REMARKS
BUFFALO          N/A     21  14  74 N33G44    29.66F WCI   2
FAITH            N/A     33  15  47 N28G35    29.70R WCI  20
MOBRIDGE       FAIR      32  21  64 SE5       29.67F WCI  27
$$

SDZ012>016-024>037-041>051-057-063-072>074-030700-
SOUTHWEST AND SOUTH CENTRAL SOUTH DAKOTA

CITY           SKY/WX    TMP DP  RH WIND       PRES   REMARKS
RAPID CTY ARPT CLOUDY    35  19  52 N10       29.69F WCI  27
PIERRE         LGT SNOW  34  25  69 S21       29.67F WCI  22
CUSTER         FLURRIES  25  18  74 N10       29.60F WCI  15
ELLSWORTH AFB  MOCLDY    35  18  49 NW23      29.68S WCI  23
PHILIP         LGT SNOW  32  31  96 W5        29.68F FOG     WCI  27
PINE RIDGE     LGT SNOW  29  26  89 SW5       29.67S VSB 1   WCI  24
SPEARFISH      MIX PCPN  27  19  74 NW13      29.77R WCI  16
WINNER         FAIR      33  16  49 S14       29.70F WCI  23
$$

SDZ004>011-016>023-039-040-030700-
NORTHEAST SOUTH DAKOTA

CITY           SKY/WX    TMP DP  RH WIND       PRES   REMARKS
ABERDEEN       MOCLDY    30  22  72 S17       29.75F WCI  18
WATERTOWN      CLOUDY    26  20  77 S17       29.78F WCI  13
SISSETON         N/A     28  23  81 S14       29.79F WCI  17
$$

SDZ017-020-022-023-036>040-048>070-030700-
SOUTHEAST SOUTH DAKOTA

CITY           SKY/WX    TMP DP  RH WIND       PRES   REMARKS
SIOUX FALLS    CLOUDY    27  19  72 SE16      29.83F WCI  15
HURON          CLOUDY    31  21  66 S14       29.78F WCI  21
MITCHELL         N/A     32  20  61 SE13      29.80F WCI  22
YANKTON        FAIR      30  19  64 SE12      29.84F WCI  21
$$

ABBREVIATIONS USED IN REMARKS
   TC - TEMPERATURE IN CELSIUS
  WCI - WIND CHILL INDEX
   HX - HEAT INDEX
  VSB - VISIBILITY



USA.gov is the U.S. government's official web portal to all federal, state and local government web resources and services.